sat.trackr.live / text

‹ back to catalog

STARLINK-3291

NORAD 50175 · 2021-125V

PAYLOAD ACTIVE UNKNOWN

§ Identity

Operator
Country
US
Launch date
2021-12-18
Launch site
AFWTR
Launch vehicle
Mass (kg)
RCS (m²)

Purposes: comms

External: N2YO · Heavens-Above · Gunter

§ Orbital elements

Epoch: 2026-09-19T08:29:50.188704Z

Period
93.79 min
Inclination
53.1603°
Eccentricity
0.0001079
Mean motion
15.35393850 rev/d
Perigee alt
459.0 km
Apogee alt
460.5 km
Semi-major
6,837.9 km
B*
1.8666e-5
RAAN
88.8507°
Arg perigee
98.5304°
Mean anomaly
261.5821°
Rev number
26,598

§ Raw data

STARLINK-32911 50175U 21125V   26262.35405311  .00000271  00000+0  18666-4 0  99992 50175  53.1603  88.8507 0001079  98.5304 261.5821 15.35393850265987

JSON: /api/v1/satellites/50175 · /tle

For live sub-satellite position, see the globe view (requires WebGL).

§ Visibility from observer

Set your observer location to see the next 7 days of passes ≥ 10°. The values pass through the URL so the page stays shareable.

No JS? Fill the form by hand. The geolocation button needs JavaScript.